Old Hickory Lake Weather Center

Moon Phase Calendar



Old Hickory Lake Water Level
Online Cameras

 


      

Current Conditions in Gallatin
9/22/2021 5:25:51 AM

62°F
Feels Like 62
Clouds
Humidity
98%
Pressure
30.09"
Wind
3 mph (WNW)
Dew Point
61°F
UV Index
0/10 (Low)
Visibility
6 mi

Hourly Forecast

Date & Time Wed, Sep 22
5:00 AM
Wed, Sep 22
6:00 AM
Wed, Sep 22
7:00 AM
Wed, Sep 22
8:00 AM
Wed, Sep 22
9:00 AM
Wed, Sep 22
10:00 AM
Wed, Sep 22
11:00 AM
Wed, Sep 22
12:00 PM
Wed, Sep 22
1:00 PM
Wed, Sep 22
2:00 PM
Wed, Sep 22
3:00 PM
Wed, Sep 22
4:00 PM
Wed, Sep 22
5:00 PM
Wed, Sep 22
6:00 PM
Wed, Sep 22
7:00 PM
Wed, Sep 22
8:00 PM
Wed, Sep 22
9:00 PM
Wed, Sep 22
10:00 PM
Wed, Sep 22
11:00 PM
Thu, Sep 23
12:00 AM
Thu, Sep 23
1:00 AM
Thu, Sep 23
2:00 AM
Thu, Sep 23
3:00 AM
Thu, Sep 23
4:00 AM
Thu, Sep 23
5:00 AM
Thu, Sep 23
6:00 AM
Thu, Sep 23
7:00 AM
Thu, Sep 23
8:00 AM
Thu, Sep 23
9:00 AM
Thu, Sep 23
10:00 AM
Thu, Sep 23
11:00 AM
Thu, Sep 23
12:00 PM
Thu, Sep 23
1:00 PM
Thu, Sep 23
2:00 PM
Thu, Sep 23
3:00 PM
Thu, Sep 23
4:00 PM
Thu, Sep 23
5:00 PM
Thu, Sep 23
6:00 PM
Thu, Sep 23
7:00 PM
Thu, Sep 23
8:00 PM
Thu, Sep 23
9:00 PM
Thu, Sep 23
10:00 PM
Thu, Sep 23
11:00 PM
Fri, Sep 24
12:00 AM
Fri, Sep 24
1:00 AM
Fri, Sep 24
2:00 AM
Fri, Sep 24
3:00 AM
Fri, Sep 24
4:00 AM
Condition
Rain

Clouds

Rain

Rain

Clouds

Clouds

Clouds

Rain

Rain

Clouds

Clouds

Rain

Rain

Clouds

Clouds

Clear

Clear

Clear

Clear

Clear

Clear

Clear

Clear

Clear

Clear

Clear

Clear

Clear

Clear

Clear

Clear

Clear

Clear

Clear

Clear

Clear

Clear

Clear

Clear

Clear

Clear

Clear

Clear

Clear

Clear

Clear

Clear

Clear
Temperature 62°F62°F61°F61°F60°F63°F64°F63°F62°F63°F64°F62°F60°F59°F58°F55°F54°F53°F52°F52°F52°F51°F51°F50°F50°F49°F49°F53°F56°F59°F61°F63°F65°F66°F66°F66°F65°F62°F58°F57°F56°F54°F54°F53°F52°F51°F51°F50°F
Feels Like 62°F62°F62°F61°F60°F63°F64°F62°F62°F63°F64°F62°F59°F58°F57°F54°F53°F52°F52°F51°F51°F50°F50°F49°F48°F48°F48°F52°F55°F58°F60°F61°F63°F64°F65°F65°F64°F61°F57°F55°F54°F53°F52°F51°F51°F50°F49°F49°F
Cloudiness 100%100%100%100%100%73%68%71%76%88%64%63%70%58%54%8%7%5%6%5%4%0%0%0%0%0%0%0%0%0%0%0%0%0%0%0%0%0%0%0%0%0%0%0%0%0%0%0%
Visibility 6 mi6 mi6 mi6 mi6 mi6 mi6 mi6 mi6 mi6 mi6 mi6 mi6 mi6 mi6 mi6 mi6 mi6 mi6 mi6 mi6 mi6 mi6 mi6 mi6 mi6 mi6 mi6 mi6 mi6 mi6 mi6 mi6 mi6 mi6 mi6 mi6 mi6 mi6 mi6 mi6 mi6 mi6 mi6 mi6 mi6 mi6 mi6 mi
Precipitation 100%80%100%95%71%85%81%81%81%50%71%59%58%30%12%0%1%0%0%0%0%0%0%0%0%0%0%0%0%0%0%0%0%0%0%0%0%0%0%0%0%0%0%0%0%0%0%0%
Humidity 98%97%96%96%94%82%78%79%80%74%67%72%78%77%75%78%83%86%88%89%90%90%89%89%88%89%89%82%70%62%55%50%47%46%47%51%56%65%66%69%72%73%74%74%75%76%77%78%
Dew Point 61°F61°F60°F59°F58°F57°F57°F56°F55°F54°F53°F53°F52°F52°F49°F49°F49°F49°F49°F49°F48°F48°F47°F47°F46°F46°F46°F47°F46°F46°F45°F44°F44°F44°F45°F47°F49°F50°F47°F46°F46°F46°F45°F45°F44°F44°F44°F44°F
Pressure 30.09"30.06"30.06"30.03"30.03"30"30"30.03"30.03"30.03"30.03"30.03"30.03"30.06"30.06"30.09"30.09"30.06"30.06"30.06"30.06"30.06"30.06"30.03"30.03"30.06"30.06"30.09"30.09"30.09"30.09"30.09"30.06"30.06"30.03"30.03"30.03"30.03"30.03"30.06"30.06"30.09"30.09"30.09"30.09"30.09"30.09"30.12"
Wind Speed 14.2 mph12.6 mph10 mph8.6 mph9.2 mph11.3 mph13.3 mph14.3 mph13.5 mph14.3 mph15.9 mph14.7 mph10.3 mph10.2 mph9.4 mph6.2 mph4.7 mph4.8 mph4.3 mph4.6 mph4.2 mph4.8 mph5.6 mph5.2 mph4.3 mph3.8 mph4.1 mph5.5 mph7 mph8.3 mph9.6 mph10.8 mph11.1 mph10.7 mph10 mph8.6 mph6.8 mph3.7 mph2.5 mph2.6 mph2.8 mph2.7 mph2.2 mph1.5 mph1.1 mph0.9 mph0.9 mph0.9 mph
Wind
Direction
313°
NW
336°
NNW
331°
NNW
322°
NW
306°
NW
303°
WNW
294°
WNW
293°
WNW
302°
WNW
315°
NW
320°
NW
331°
NNW
332°
NNW
332°
NNW
338°
NNW
340°
NNW
314°
NW
318°
NW
315°
NW
293°
WNW
286°
WNW
303°
WNW
319°
NW
314°
NW
301°
WNW
283°
WNW
280°
W
284°
WNW
303°
WNW
314°
NW
317°
NW
319°
NW
319°
NW
317°
NW
314°
NW
309°
NW
303°
WNW
291°
WNW
304°
NW
346°
NNW

N
13°
NNE
17°
NNE
26°
NNE
61°
ENE
126°
SE
137°
SE
147°
SSE

Daily Forecast

Date High Low Precip. Humidity
Today
Sep 22

Rain
68 °F
52 °F
100%
79%
Thursday
Sep 23

Clear
66 °F
49 °F
0%
50%
Friday
Sep 24

Clear
70 °F
50 °F
0%
47%
Saturday
Sep 25

Clouds
72 °F
53 °F
0%
52%
Sunday
Sep 26

Clear
78 °F
57 °F
0%
51%
Monday
Sep 27

Clear
81 °F
60 °F
0%
55%
Tuesday
Sep 28

Rain
81 °F
63 °F
25%
52%
Wednesday
Sep 29

Clouds
70 °F
55 °F
16%
58%
Thursday
Sep 30

Clear
73 °F
53 °F
0%
57%
Friday
Oct 1

Clear
74 °F
54 °F
0%
54%
Saturday
Oct 2

Clear
74 °F
54 °F
0%
46%
Sunday
Oct 3

Clouds
76 °F
56 °F
0%
55%
Monday
Oct 4

Clear
77 °F
57 °F
0%
57%
Tuesday
Oct 5

Clear
77 °F
60 °F
18%
50%
Wednesday
Oct 6

Rain
75 °F
63 °F
24%
63%
Thursday
Oct 7

Clouds
77 °F
57 °F
0%
51%

Temperature 8-14 Day Outlook



Precipitation 8-14 Day Outlook




Quick Links
Old Hickory Lake News
Old Hickory Lake Photos
Old Hickory Lake Videos




About Us
Contact Us
Site Map
Search Site
Advertise With Us
   
OldHickory.USLakes.info
THE OLD HICKORY LAKE WEBSITE

Copyright 2021, Lakes Online
Privacy    |    Legal